Miscellaneous Local Product
Issued by NWS North Platte, NE

Home | Current Version | Previous Version | Graphics & Text | Print | Product List | Glossary On
Versions: 1 2 3 4 5 6 7 8 9 10 11 12 13 14 15 16 17 18 19 20 21 22 23 24 25 26 27 28 29 30 31 32 33 34 35 36 37 38 39 40 41 42 43 44 45 46 47 48 49 50
000
AXUS43 KLBF 201610
MISLBF


WESTERN AND NORTH CENTRAL NEBRASKA HOURLY WEATHER ROUNDUP
NATIONAL WEATHER SERVICE NORTH PLATTE NE
1000 AM CST THU NOV 20 2014

***STATIONS NOT REPORTING VARIABLES SUCH AS SKY/WEATHER OR
PRESSURE ARE PROVIDED BY THE NEBRASKA DEPARTMENT OF
ROADS...RAWS...AND APRS NETWORKS...AND ARE NOT UNDER
NATIONAL WEATHER SERVICE QUALITY CONTROL***

...OBSERVATIONS IN AND NEAR THE EASTERN PANHANDLE OF NEBRASKA...

CITY           SKY/WX    TMP DP  RH WIND       PRES   REMARKS
PINE RIDGE     MOSUNNY   13  11  92 CALM      30.02S
CHADRON        MOSUNNY   19  14  81 SW5       30.02S WCI  12
ALLIANCE       SUNNY     24  19  81 S3        30.02R
SIDNEY         SUNNY     33  25  72 W7        30.02F WCI  27
WHITECLAY        N/A     20  14  79 CALM        N/A
LISCO            N/A     25  17  71 CALM        N/A
BIG SPRINGS      N/A     24  19  82 W3          N/A
LEWELLEN         N/A     16  12  86 CALM        N/A
$$

...OBSERVATIONS IN NORTH CENTRAL NEBRASKA...

CITY           SKY/WX    TMP DP  RH WIND       PRES   REMARKS
VALENTINE      MOSUNNY   13  11  92 SW5       30.09F WCI   5
THEDFORD       SUNNY     22  20  94 CALM      30.09S
AINSWORTH      MOSUNNY   19  15  84 SE6       30.10S WCI  11
O`NEILL        CLOUDY    19  16  89 CALM      30.17R
ORD            SUNNY     22  17  81 CALM      30.15S
BROKEN BOW     SUNNY     23  17  78 SE6       30.12R WCI  16
BROWNLEE         N/A     17  16  93 S5          N/A  WCI  10
BREWSTER         N/A     25  23  92 CALM        N/A
COMSTOCK         N/A     29  24  81 CALM        N/A
$$

...OBSERVATIONS IN SOUTHWEST NEBRASKA AND FAR NORTHEAST COLORADO...

CITY           SKY/WX    TMP DP  RH WIND       PRES   REMARKS
WRAY           FAIR      32  20  61 CALM      30.05S
HOLYOKE        FAIR      34  23  64 CALM      30.05S
IMPERIAL       SUNNY     30  20  66 N6        30.07R WCI  24
OGALLALA       SUNNY     26  20  79 W3        30.07S
NORTH PLATTE   SUNNY     22  17  81 NW3       30.10R
MCCOOK         SUNNY     24  18  77 VRB3      30.10R
LEXINGTON      SUNNY     25  19  78 SE5       30.12R WCI  19
PAXTON           N/A     23  20  87 CALM        N/A
GOTHENBURG       N/A     26  18  72 CALM        N/A
CALLAWAY         N/A     25  21  85 S5          N/A  WCI  19
$$

...SOME WEATHER OBSERVATIONS FROM AROUND THE REGION...

CITY           SKY/WX    TMP DP  RH WIND       PRES   REMARKS
DENVER         MOSUNNY   34  26  72 CALM      30.01S
LARAMIE        MOSUNNY   30  11  45 W12       30.00F WCI  20
CHEYENNE       SUNNY     39  15  37 CALM      30.01R
SCOTTSBLUFF    SUNNY     24  19  81 W6        30.03S WCI  17
RAPID CITY     MOSUNNY   16  13  88 SE3       29.99F
PIERRE         CLOUDY    18  13  80 CALM      30.14R
WINNER         CLOUDY    20  12  71 SE5       30.14R WCI  13
SIOUX FALLS    MOSUNNY   13   6  74 NW6       30.18R WCI   4
OMAHA          CLOUDY    24  16  71 CALM      30.25R
GRAND ISLAND   SUNNY     23  17  78 E6        30.19R WCI  16
KANSAS CITY    MOSUNNY   29  17  61 NE6       30.26R WCI  23
WICHITA        MOSUNNY   37  20  50 SE7       30.18S WCI  32
HAYS           SUNNY     34  19  55 S13       30.13R WCI  25
LIBERAL        SUNNY     39  27  60 SE8       30.08S WCI  34
GOODLAND       SUNNY     35  21  56 W8        30.05R WCI  29
$$



USA.gov is the U.S. government's official web portal to all federal, state and local government web resources and services.